| time (UTC) | temp F | wind direction | speed MPH | gust MPH | rain 1hr in | rain 24hr in | rain mn in | humidity % | barometer mb |
| 20260904184024 | 63 | 68 | 3.0 | 11.0 | 0.00 | 0.00 | 0.00 | 75 | 1012.8 |
| 20260904183525 | 62 | 46 | 5.0 | 11.0 | 0.00 | 0.00 | 0.00 | 75 | 1012.8 |
| 20260904183024 | 62 | 33 | 6.0 | 6.0 | 0.00 | 0.00 | 0.00 | 76 | 1012.8 |
| 20260904182324 | 62 | 333 | 3.0 | 4.0 | 0.00 | 0.00 | 0.00 | 81 | 1012.8 |
| 20260904181624 | 61 | 360 | 4.0 | 7.0 | 0.00 | 0.00 | 0.00 | 83 | 1012.7 |
| 20260904181124 | 61 | 10 | 2.0 | 7.0 | 0.00 | 0.00 | 0.00 | 82 | 1012.7 |
| 20260904180625 | 61 | 28 | 5.0 | 5.0 | 0.00 | 0.00 | 0.00 | 82 | 1012.7 |
| 20260904180124 | 61 | 49 | 2.0 | 7.0 | 0.00 | 0.00 | 0.00 | 83 | 1012.6 |
| 20260904175624 | 62 | 34 | 5.0 | 7.0 | 0.00 | 0.00 | 0.00 | 83 | 1012.6 |
| 20260904175124 | 61 | 345 | 2.0 | 9.0 | 0.00 | 0.00 | 0.00 | 88 | 1012.6 |
| 20260904174624 | 60 | 284 | 1.0 | 9.0 | 0.00 | 0.00 | 0.00 | 89 | 1012.6 |
| 20260904174125 | 59 | 38 | 1.0 | 3.0 | 0.00 | 0.00 | 0.00 | 95 | 1012.5 |
| 20260904173625 | 58 | 305 | 1.0 | 3.0 | 0.00 | 0.00 | 0.00 | 94 | 1012.6 |
| 20260904172924 | 57 | 181 | 1.0 | 2.0 | 0.00 | 0.00 | 0.00 | 97 | 1012.6 |
| 20260904172424 | 56 | 181 | 1.0 | 1.0 | 0.00 | 0.00 | 0.00 | 99 | 1012.6 |
| 20260904171925 | 55 | 165 | 0.0 | 3.0 | 0.00 | 0.00 | 0.00 | 99 | 1012.6 |
| 20260904171426 | 55 | 167 | 1.0 | 3.0 | 0.00 | 0.00 | 0.00 | 100 | 1012.5 |
| 20260904170924 | 55 | 167 | 0.0 | 3.0 | 0.00 | 0.00 | 0.00 | 100 | 1012.5 |
| 20260904170425 | 55 | 167 | 3.0 | 3.0 | 0.00 | 0.00 | 0.00 | 100 | 1012.5 |
| 20260904165925 | 55 | 167 | 3.0 | 3.0 | 0.00 | 0.00 | 0.00 | 100 | 1012.4 |
| 20260904165424 | 54 | 167 | 1.0 | 1.0 | 0.00 | 0.00 | 0.00 | 100 | 1012.4 |
| 20260904164725 | 54 | 167 | 0.0 | 0.0 | 0.00 | 0.00 | 0.00 | 100 | 1012.4 |
| 20260904164024 | 53 | 167 | 0.0 | 1.0 | 0.00 | 0.00 | 0.00 | 100 | 1012.4 |
| 20260904163525 | 53 | 167 | 0.0 | 3.0 | 0.00 | 0.00 | 0.00 | 100 | 1012.4 |
| 20260904163025 | 53 | 167 | 1.0 | 3.0 | 0.00 | 0.00 | 0.00 | 100 | 1012.5 |
| 20260904162324 | 52 | 167 | 0.0 | 1.0 | 0.00 | 0.00 | 0.00 | 100 | 1012.5 |
| 20260904161824 | 52 | 167 | 0.0 | 1.0 | 0.00 | 0.00 | 0.00 | 100 | 1012.4 |
| 20260904161124 | 52 | 167 | 1.0 | 1.0 | 0.00 | 0.00 | 0.00 | 100 | 1012.4 |
| 20260904160625 | 52 | 167 | 0.0 | 1.0 | 0.00 | 0.00 | 0.00 | 100 | 1012.4 |
| 20260904155725 | 51 | 360 | 1.0 | 2.0 | 0.00 | 0.00 | 0.00 | 100 | 1012.4 |
| 20260904155225 | 51 | 360 | 2.0 | 2.0 | 0.00 | 0.00 | 0.00 | 100 | 1012.4 |
| 20260904154724 | 50 | 360 | 1.0 | 2.0 | 0.00 | 0.00 | 0.00 | 100 | 1012.4 |
| 20260904154024 | 50 | 360 | 1.0 | 2.0 | 0.00 | 0.00 | 0.00 | 100 | 1012.3 |
| 20260904153125 | 50 | 360 | 0.0 | 2.0 | 0.00 | 0.00 | 0.00 | 100 | 1012.2 |
| 20260904152224 | 49 | 360 | 0.0 | 1.0 | 0.00 | 0.00 | 0.00 | 100 | 1012.1 |
| 20260904151725 | 49 | 360 | 0.0 | 1.0 | 0.00 | 0.00 | 0.00 | 100 | 1012.1 |
| 20260904151024 | 48 | 360 | 1.0 | 1.0 | 0.00 | 0.00 | 0.00 | 100 | 1012.1 |
| 20260904150524 | 48 | 360 | 0.0 | 1.0 | 0.00 | 0.00 | 0.00 | 100 | 1012.0 |
| 20260904150025 | 48 | 360 | 0.0 | 1.0 | 0.00 | 0.00 | 0.00 | 100 | 1012.0 |
| 20260904145524 | 48 | 360 | 0.0 | 0.0 | 0.00 | 0.00 | 0.00 | 100 | 1012.0 |
| 20260904145024 | 48 | 360 | 0.0 | 1.0 | 0.00 | 0.00 | 0.00 | 100 | 1011.9 |
| 20260904144524 | 47 | 360 | 0.0 | 1.0 | 0.00 | 0.00 | 0.00 | 100 | 1011.9 |
| 20260904144024 | 47 | 360 | 0.0 | 0.0 | 0.00 | 0.00 | 0.00 | 100 | 1011.8 |
| 20260904143524 | 47 | 360 | 0.0 | 1.0 | 0.00 | 0.00 | 0.00 | 100 | 1011.8 |
| 20260904143024 | 47 | 360 | 0.0 | 1.0 | 0.00 | 0.00 | 0.00 | 100 | 1011.7 |
| 20260904142524 | 47 | 360 | 0.0 | 1.0 | 0.00 | 0.00 | 0.00 | 100 | 1011.7 |
| 20260904142024 | 47 | 360 | 1.0 | 1.0 | 0.00 | 0.00 | 0.00 | 100 | 1011.6 |
| 20260904141524 | 47 | 59 | 0.0 | 0.0 | 0.00 | 0.00 | 0.00 | 100 | 1011.6 |
| 20260904141024 | 47 | 60 | 0.0 | 0.0 | 0.00 | 0.00 | 0.00 | 100 | 1011.5 |
| 20260904140525 | 46 | 360 | 0.0 | 0.0 | 0.00 | 0.00 | 0.00 | 100 | 1011.5 |
| 20260904135824 | 46 | 360 | 0.0 | 0.0 | 0.00 | 0.00 | 0.00 | 100 | 1011.5 |
| 20260904135324 | 46 | 360 | 0.0 | 0.0 | 0.00 | 0.00 | 0.00 | 100 | 1011.5 |
| 20260904134824 | 46 | 360 | 0.0 | 0.0 | 0.00 | 0.00 | 0.00 | 99 | 1011.4 |
| 20260904134324 | 46 | 360 | 0.0 | 0.0 | 0.00 | 0.00 | 0.00 | 99 | 1011.4 |
| 20260904133824 | 46 | 360 | 0.0 | 0.0 | 0.00 | 0.00 | 0.00 | 99 | 1011.4 |
| 20260904133325 | 46 | 360 | 0.0 | 0.0 | 0.00 | 0.00 | 0.00 | 99 | 1011.4 |
| 20260904132825 | 46 | 360 | 0.0 | 0.0 | 0.00 | 0.00 | 0.00 | 99 | 1011.3 |
| 20260904132325 | 46 | 360 | 0.0 | 0.0 | 0.00 | 0.00 | 0.00 | 99 | 1011.3 |
| 20260904131824 | 46 | 360 | 0.0 | 0.0 | 0.00 | 0.00 | 0.00 | 99 | 1011.2 |
| 20260904131324 | 46 | 61 | 0.0 | 1.0 | 0.00 | 0.00 | 0.00 | 99 | 1011.2 |
| 20260904130824 | 46 | 61 | 0.0 | 1.0 | 0.00 | 0.00 | 0.00 | 99 | 1011.2 |
| 20260904130325 | 46 | 60 | 0.0 | 1.0 | 0.00 | 0.00 | 0.00 | 99 | 1011.1 |
| 20260904125824 | 46 | 59 | 1.0 | 1.0 | 0.00 | 0.00 | 0.00 | 99 | 1011.1 |
| 20260904125324 | 46 | 60 | 0.0 | 1.0 | 0.00 | 0.00 | 0.00 | 99 | 1011.0 |
| 20260904124825 | 46 | 60 | 1.0 | 1.0 | 0.00 | 0.00 | 0.00 | 99 | 1011.0 |
| 20260904124324 | 46 | 60 | 0.0 | 2.0 | 0.00 | 0.00 | 0.00 | 99 | 1011.0 |
| 20260904123824 | 46 | 60 | 1.0 | 2.0 | 0.00 | 0.00 | 0.00 | 99 | 1010.9 |
| 20260904123324 | 46 | 59 | 1.0 | 2.0 | 0.00 | 0.00 | 0.00 | 99 | 1010.9 |
| 20260904122824 | 46 | 59 | 1.0 | 2.0 | 0.00 | 0.00 | 0.00 | 99 | 1010.8 |
| 20260904122124 | 46 | 59 | 1.0 | 2.0 | 0.00 | 0.00 | 0.00 | 99 | 1010.8 |
| 20260904121624 | 46 | 59 | 0.0 | 2.0 | 0.00 | 0.00 | 0.00 | 99 | 1010.8 |
| 20260904121124 | 46 | 59 | 2.0 | 2.0 | 0.00 | 0.00 | 0.00 | 99 | 1010.7 |
| 20260904120624 | 46 | 360 | 1.0 | 2.0 | 0.00 | 0.00 | 0.00 | 99 | 1010.6 |
| 20260904120125 | 46 | 60 | 1.0 | 1.0 | 0.00 | 0.00 | 0.00 | 99 | 1010.6 |
| 20260904115624 | 46 | 360 | 0.0 | 1.0 | 0.00 | 0.00 | 0.00 | 99 | 1010.6 |
| 20260904115125 | 47 | 360 | 1.0 | 1.0 | 0.00 | 0.00 | 0.00 | 99 | 1010.7 |
| 20260904114625 | 47 | 360 | 0.0 | 0.0 | 0.00 | 0.00 | 0.00 | 99 | 1010.5 |
| 20260904114124 | 47 | 360 | 0.0 | 1.0 | 0.00 | 0.00 | 0.00 | 99 | 1010.6 |
| 20260904113624 | 47 | 360 | 0.0 | 1.0 | 0.00 | 0.00 | 0.00 | 99 | 1010.4 |
| 20260904112925 | 47 | 360 | 0.0 | 1.0 | 0.00 | 0.00 | 0.00 | 99 | 1010.3 |
| 20260904112424 | 47 | 360 | 0.0 | 0.0 | 0.00 | 0.00 | 0.00 | 99 | 1010.3 |
| 20260904111924 | 47 | 360 | 0.0 | 0.0 | 0.00 | 0.00 | 0.00 | 99 | 1010.3 |
| 20260904111424 | 47 | 360 | 0.0 | 0.0 | 0.00 | 0.00 | 0.00 | 99 | 1010.3 |
| 20260904110925 | 47 | 360 | 0.0 | 0.0 | 0.00 | 0.00 | 0.00 | 99 | 1010.3 |
| 20260904110025 | 47 | 360 | 0.0 | 0.0 | 0.00 | 0.00 | 0.00 | 99 | 1010.3 |
| 20260904105525 | 47 | 360 | 0.0 | 1.0 | 0.00 | 0.00 | 0.00 | 99 | 1010.3 |
| 20260904105025 | 47 | 360 | 0.0 | 1.0 | 0.00 | 0.00 | 0.00 | 99 | 1010.3 |
| 20260904104325 | 47 | 360 | 0.0 | 1.0 | 0.00 | 0.00 | 0.00 | 99 | 1010.4 |
| 20260904103825 | 47 | 360 | 0.0 | 0.0 | 0.00 | 0.00 | 0.00 | 99 | 1010.3 |
| 20260904103325 | 47 | 360 | 0.0 | 0.0 | 0.00 | 0.00 | 0.00 | 99 | 1010.2 |
| 20260904102425 | 47 | 360 | 0.0 | 0.0 | 0.00 | 0.00 | 0.00 | 99 | 1010.1 |
| 20260904101724 | 47 | 360 | 0.0 | 0.0 | 0.00 | 0.00 | 0.00 | 99 | 1010.2 |
| 20260904101224 | 47 | 360 | 0.0 | 0.0 | 0.00 | 0.00 | 0.00 | 99 | 1010.2 |
| 20260904100324 | 47 | 360 | 0.0 | 0.0 | 0.00 | 0.00 | 0.00 | 99 | 1010.2 |
| 20260904095825 | 47 | 360 | 0.0 | 0.0 | 0.00 | 0.00 | 0.00 | 99 | 1010.3 |
| 20260904095324 | 48 | 360 | 0.0 | 0.0 | 0.00 | 0.00 | 0.00 | 99 | 1010.3 |
| 20260904094825 | 48 | 360 | 0.0 | 0.0 | 0.00 | 0.00 | 0.00 | 99 | 1010.2 |
| 20260904094324 | 48 | 360 | 0.0 | 0.0 | 0.00 | 0.00 | 0.00 | 99 | 1010.2 |
| 20260904093824 | 48 | 360 | 0.0 | 0.0 | 0.00 | 0.00 | 0.00 | 99 | 1010.2 |
| 20260904093124 | 48 | 360 | 0.0 | 0.0 | 0.00 | 0.00 | 0.00 | 99 | 1010.3 |
| 20260904092625 | 47 | 360 | 0.0 | 0.0 | 0.00 | 0.00 | 0.00 | 99 | 1010.2 |
| 20260904092124 | 47 | 360 | 0.0 | 1.0 | 0.00 | 0.00 | 0.00 | 99 | 1010.2 |
| 20260904091625 | 47 | 360 | 0.0 | 1.0 | 0.00 | 0.00 | 0.00 | 99 | 1010.2 |
| 20260904090925 | 47 | 61 | 0.0 | 0.0 | 0.00 | 0.00 | 0.00 | 99 | 1010.1 |
| 20260904090425 | 47 | 360 | 0.0 | 0.0 | 0.00 | 0.00 | 0.00 | 99 | 1010.2 |
| 20260904085925 | 47 | 360 | 0.0 | 0.0 | 0.00 | 0.00 | 0.00 | 99 | 1010.2 |
| 20260904085424 | 47 | 360 | 0.0 | 0.0 | 0.00 | 0.00 | 0.00 | 99 | 1010.2 |
| 20260904084724 | 47 | 360 | 0.0 | 1.0 | 0.00 | 0.00 | 0.00 | 99 | 1010.2 |
| 20260904084224 | 46 | 360 | 0.0 | 1.0 | 0.00 | 0.00 | 0.00 | 99 | 1010.1 |
| 20260904083524 | 46 | 360 | 0.0 | 0.0 | 0.00 | 0.00 | 0.00 | 99 | 1010.2 |
| 20260904082824 | 46 | 360 | 0.0 | 0.0 | 0.00 | 0.00 | 0.00 | 98 | 1010.1 |
| 20260904082324 | 46 | 360 | 0.0 | 0.0 | 0.00 | 0.00 | 0.00 | 98 | 1010.0 |
| 20260904081824 | 47 | 360 | 0.0 | 0.0 | 0.00 | 0.00 | 0.00 | 98 | 1009.9 |
| 20260904081325 | 47 | 360 | 0.0 | 0.0 | 0.00 | 0.00 | 0.00 | 98 | 1009.9 |
| 20260904080825 | 47 | 360 | 0.0 | 0.0 | 0.00 | 0.00 | 0.00 | 98 | 1009.9 |
| 20260904080325 | 47 | 360 | 0.0 | 1.0 | 0.00 | 0.00 | 0.00 | 98 | 1009.9 |
| 20260904075825 | 47 | 360 | 0.0 | 1.0 | 0.00 | 0.00 | 0.00 | 98 | 1009.9 |
| 20260904075325 | 47 | 360 | 0.0 | 1.0 | 0.00 | 0.00 | 0.00 | 98 | 1009.9 |
| 20260904074824 | 47 | 360 | 1.0 | 1.0 | 0.00 | 0.00 | 0.00 | 98 | 1009.9 |
| 20260904074324 | 47 | 360 | 0.0 | 1.0 | 0.00 | 0.00 | 0.00 | 98 | 1009.8 |
| 20260904073824 | 47 | 360 | 0.0 | 1.0 | 0.00 | 0.00 | 0.00 | 97 | 1009.7 |
| 20260904073125 | 48 | 360 | 0.0 | 1.0 | 0.00 | 0.00 | 0.00 | 98 | 1009.7 |
| 20260904072625 | 49 | 360 | 1.0 | 1.0 | 0.00 | 0.00 | 0.00 | 98 | 1009.6 |
| 20260904072124 | 49 | 360 | 0.0 | 0.0 | 0.00 | 0.00 | 0.00 | 98 | 1009.7 |
| 20260904071625 | 49 | 360 | 0.0 | 0.0 | 0.00 | 0.00 | 0.00 | 98 | 1009.7 |
| 20260904070925 | 49 | 360 | 0.0 | 0.0 | 0.00 | 0.00 | 0.00 | 98 | 1009.7 |
| 20260904070424 | 49 | 360 | 0.0 | 2.0 | 0.00 | 0.00 | 0.00 | 98 | 1009.7 |
| 20260904065924 | 50 | 360 | 0.0 | 2.0 | 0.00 | 0.00 | 0.83 | 98 | 1009.7 |
| 20260904065424 | 49 | 360 | 0.0 | 1.0 | 0.00 | 0.00 | 0.83 | 98 | 1009.7 |
| 20260904064925 | 49 | 360 | 0.0 | 1.0 | 0.00 | 0.00 | 0.83 | 98 | 1009.7 |
| 20260904064425 | 49 | 360 | 0.0 | 1.0 | 0.00 | 0.00 | 0.83 | 97 | 1009.7 |
| 20260904063924 | 49 | 360 | 1.0 | 1.0 | 0.00 | 0.00 | 0.83 | 97 | 1009.7 |
| 20260904063224 | 50 | 360 | 0.0 | 2.0 | 0.00 | 0.00 | 0.83 | 97 | 1009.8 |
| 20260904062724 | 50 | 360 | 1.0 | 2.0 | 0.00 | 0.00 | 0.83 | 97 | 1009.8 |
| 20260904062224 | 51 | 360 | 1.0 | 1.0 | 0.00 | 0.00 | 0.83 | 97 | 1009.8 |
| 20260904061724 | 51 | 360 | 0.0 | 0.0 | 0.00 | 0.00 | 0.83 | 97 | 1009.8 |
| 20260904061225 | 51 | 360 | 0.0 | 0.0 | 0.00 | 0.00 | 0.83 | 97 | 1009.7 |
| 20260904060724 | 51 | 360 | 0.0 | 0.0 | 0.00 | 0.00 | 0.83 | 97 | 1009.7 |
| 20260904055624 | 52 | 360 | 0.0 | 0.0 | 0.00 | 0.00 | 0.83 | 97 | 1009.7 |
| 20260904054725 | 52 | 360 | 0.0 | 0.0 | 0.00 | 0.00 | 0.83 | 97 | 1009.6 |
| 20260904054225 | 52 | 360 | 0.0 | 0.0 | 0.00 | 0.00 | 0.83 | 97 | 1009.6 |
| 20260904053625 | 53 | 54 | 0.0 | 1.0 | 0.00 | 0.00 | 0.83 | 97 | 1009.6 |
| 20260904053125 | 53 | 54 | 1.0 | 1.0 | 0.00 | 0.00 | 0.83 | 97 | 1009.6 |
| 20260904052425 | 53 | 53 | 0.0 | 1.0 | 0.00 | 0.00 | 0.83 | 97 | 1009.6 |
| 20260904051725 | 53 | 53 | 0.0 | 1.0 | 0.00 | 0.00 | 0.83 | 97 | 1009.7 |
| 20260904051226 | 53 | 53 | 0.0 | 1.0 | 0.00 | 0.00 | 0.83 | 97 | 1009.7 |
| 20260904050724 | 53 | 53 | 0.0 | 1.0 | 0.00 | 0.00 | 0.83 | 97 | 1009.8 |
| 20260904050225 | 53 | 53 | 1.0 | 1.0 | 0.00 | 0.00 | 0.83 | 97 | 1009.8 |
| 20260904045724 | 54 | 53 | 0.0 | 0.0 | 0.00 | 0.00 | 0.83 | 97 | 1009.8 |
| 20260904044925 | 54 | 53 | 0.0 | 1.0 | 0.00 | 0.00 | 0.83 | 97 | 1009.7 |
| 20260904044425 | 54 | 53 | 1.0 | 1.0 | 0.00 | 0.00 | 0.83 | 97 | 1009.8 |
| 20260904043924 | 54 | 53 | 0.0 | 1.0 | 0.00 | 0.00 | 0.83 | 97 | 1009.8 |
| 20260904043425 | 54 | 53 | 0.0 | 1.0 | 0.00 | 0.00 | 0.83 | 97 | 1009.7 |
| 20260904042924 | 54 | 53 | 0.0 | 2.0 | 0.00 | 0.00 | 0.83 | 97 | 1009.7 |
| 20260904042424 | 54 | 53 | 1.0 | 2.0 | 0.00 | 0.00 | 0.83 | 97 | 1009.8 |
| 20260904041724 | 54 | 53 | 0.0 | 1.0 | 0.00 | 0.00 | 0.83 | 97 | 1009.8 |
| 20260904041024 | 54 | 53 | 1.0 | 1.0 | 0.00 | 0.00 | 0.83 | 97 | 1009.7 |
| 20260904040124 | 54 | 53 | 0.0 | 1.0 | 0.00 | 0.00 | 0.83 | 97 | 1009.7 |
| 20260904035624 | 54 | 53 | 1.0 | 1.0 | 0.00 | 0.00 | 0.83 | 97 | 1009.7 |
| 20260904035125 | 54 | 53 | 1.0 | 1.0 | 0.00 | 0.00 | 0.83 | 96 | 1009.6 |
| 20260904034624 | 54 | 53 | 0.0 | 2.0 | 0.00 | 0.00 | 0.83 | 96 | 1009.5 |
| 20260904034124 | 54 | 53 | 1.0 | 2.0 | 0.00 | 0.00 | 0.83 | 96 | 1009.4 |
| 20260904033624 | 54 | 53 | 1.0 | 2.0 | 0.00 | 0.00 | 0.83 | 96 | 1009.3 |
| 20260904033124 | 55 | 53 | 2.0 | 2.0 | 0.00 | 0.00 | 0.83 | 95 | 1009.2 |
| 20260904032624 | 55 | 53 | 1.0 | 2.0 | 0.00 | 0.00 | 0.83 | 95 | 1009.1 |
| 20260904032124 | 55 | 53 | 0.0 | 3.0 | 0.00 | 0.00 | 0.83 | 95 | 1009.1 |
| 20260904031624 | 55 | 53 | 2.0 | 3.0 | 0.00 | 0.00 | 0.83 | 94 | 1009.1 |
| 20260904031124 | 55 | 53 | 1.0 | 2.0 | 0.00 | 0.00 | 0.83 | 94 | 1009.0 |
| 20260904030625 | 56 | 53 | 1.0 | 2.0 | 0.00 | 0.00 | 0.83 | 94 | 1009.0 |
| 20260904030125 | 56 | 53 | 1.0 | 2.0 | 0.00 | 0.00 | 0.83 | 93 | 1009.0 |
| 20260904025624 | 56 | 54 | 1.0 | 1.0 | 0.00 | 0.00 | 0.83 | 93 | 1008.9 |
| 20260904025124 | 56 | 54 | 0.0 | 0.0 | 0.00 | 0.00 | 0.83 | 92 | 1008.9 |
| 20260904024625 | 57 | 54 | 0.0 | 0.0 | 0.00 | 0.00 | 0.83 | 92 | 1008.8 |
| 20260904023925 | 57 | 54 | 0.0 | 2.0 | 0.00 | 0.00 | 0.83 | 91 | 1008.8 |
| 20260904023424 | 58 | 54 | 0.0 | 2.0 | 0.00 | 0.00 | 0.83 | 91 | 1008.8 |
| 20260904022924 | 58 | 54 | 0.0 | 2.0 | 0.00 | 0.00 | 0.83 | 91 | 1008.8 |
| 20260904022025 | 58 | 54 | 0.0 | 2.0 | 0.00 | 0.00 | 0.83 | 91 | 1008.6 |
| 20260904021524 | 58 | 54 | 1.0 | 2.0 | 0.00 | 0.00 | 0.83 | 89 | 1008.6 |
| 20260904020825 | 59 | 61 | 0.0 | 3.0 | 0.00 | 0.00 | 0.83 | 89 | 1008.6 |
| 20260904020324 | 59 | 61 | 0.0 | 3.0 | 0.00 | 0.00 | 0.83 | 87 | 1008.6 |
| 20260904015824 | 59 | 51 | 3.0 | 3.0 | 0.00 | 0.00 | 0.83 | 86 | 1008.5 |
| 20260904015324 | 59 | 79 | 1.0 | 3.0 | 0.00 | 0.00 | 0.83 | 86 | 1008.5 |
| 20260904014825 | 59 | 79 | 3.0 | 4.0 | 0.00 | 0.00 | 0.83 | 85 | 1008.5 |
| 20260904014324 | 59 | 42 | 2.0 | 4.0 | 0.00 | 0.00 | 0.83 | 85 | 1008.5 |
| 20260904013824 | 59 | 64 | 2.0 | 4.0 | 0.00 | 0.00 | 0.83 | 84 | 1008.5 |
| 20260904013325 | 59 | 63 | 2.0 | 4.0 | 0.00 | 0.00 | 0.83 | 84 | 1008.5 |
| 20260904012624 | 59 | 65 | 2.0 | 5.0 | 0.00 | 0.00 | 0.83 | 82 | 1008.5 |
| 20260904012125 | 59 | 9 | 2.0 | 5.0 | 0.00 | 0.00 | 0.83 | 83 | 1008.5 |
| 20260904011624 | 60 | 50 | 2.0 | 5.0 | 0.00 | 0.00 | 0.83 | 83 | 1008.5 |
| 20260904010925 | 60 | 84 | 3.0 | 5.0 | 0.00 | 0.00 | 0.83 | 83 | 1008.4 |
| 20260904010424 | 60 | 84 | 3.0 | 5.0 | 0.00 | 0.00 | 0.83 | 81 | 1008.4 |
| 20260904005924 | 60 | 67 | 3.0 | 7.0 | 0.00 | 0.00 | 0.83 | 81 | 1008.3 |
| 20260904005425 | 61 | 85 | 4.0 | 8.0 | 0.00 | 0.00 | 0.83 | 80 | 1008.3 |
| 20260904004924 | 62 | 90 | 3.0 | 8.0 | 0.00 | 0.00 | 0.83 | 78 | 1008.3 |
| 20260904004425 | 62 | 92 | 3.0 | 3.0 | 0.00 | 0.00 | 0.83 | 81 | 1008.3 |
| 20260904003925 | 62 | 51 | 3.0 | 4.0 | 0.00 | 0.00 | 0.83 | 80 | 1008.2 |
| 20260904003425 | 62 | 71 | 3.0 | 6.0 | 0.00 | 0.00 | 0.83 | 79 | 1008.3 |
| 20260904002925 | 62 | 56 | 4.0 | 7.0 | 0.00 | 0.00 | 0.83 | 84 | 1008.3 |
| 20260904002425 | 61 | 360 | 5.0 | 8.0 | 0.00 | 0.00 | 0.83 | 83 | 1008.2 |
| 20260904001924 | 61 | 17 | 5.0 | 8.0 | 0.00 | 0.00 | 0.83 | 85 | 1008.2 |
| 20260904001424 | 60 | 24 | 8.0 | 8.0 | 0.00 | 0.00 | 0.83 | 86 | 1008.2 |
| 20260904000925 | 60 | 355 | 4.0 | 10.0 | 0.00 | 0.00 | 0.83 | 87 | 1008.3 |
| 20260904000425 | 60 | 17 | 8.0 | 11.0 | 0.00 | 0.00 | 0.83 | 87 | 1008.3 |
| 20260903235725 | 60 | 37 | 11.0 | 11.0 | 0.00 | 0.00 | 0.83 | 90 | 1008.3 |
| 20260903235024 | 60 | 36 | 5.0 | 7.0 | 0.00 | 0.00 | 0.83 | 89 | 1008.4 |
| 20260903234525 | 60 | 62 | 3.0 | 7.0 | 0.00 | 0.00 | 0.83 | 89 | 1008.5 |
| 20260903234024 | 60 | 40 | 5.0 | 8.0 | 0.00 | 0.00 | 0.83 | 90 | 1008.5 |
| 20260903233525 | 60 | 38 | 2.0 | 8.0 | 0.00 | 0.00 | 0.83 | 90 | 1008.4 |
| 20260903233025 | 60 | 23 | 8.0 | 8.0 | 0.00 | 0.00 | 0.83 | 89 | 1008.4 |
| 20260903232525 | 60 | 355 | 6.0 | 8.0 | 0.00 | 0.00 | 0.83 | 90 | 1008.4 |
| 20260903232024 | 59 | 42 | 4.0 | 6.0 | 0.00 | 0.00 | 0.83 | 93 | 1008.5 |
| 20260903231525 | 59 | 36 | 6.0 | 8.0 | 0.00 | 0.00 | 0.83 | 92 | 1008.4 |
| 20260903230824 | 58 | 5 | 3.0 | 8.0 | 0.00 | 0.00 | 0.83 | 92 | 1008.5 |
| 20260903230324 | 58 | 11 | 2.0 | 9.0 | 0.00 | 0.00 | 0.83 | 93 | 1008.5 |
| 20260903225825 | 59 | 28 | 3.0 | 9.0 | 0.00 | 0.00 | 0.83 | 92 | 1008.5 |
| 20260903225126 | 59 | 38 | 4.0 | 7.0 | 0.00 | 0.00 | 0.82 | 94 | 1008.7 |
| 20260903224625 | 58 | 5 | 3.0 | 5.0 | 0.00 | 0.00 | 0.82 | 94 | 1008.8 |
| 20260903224124 | 58 | 44 | 3.0 | 5.0 | 0.00 | 0.00 | 0.82 | 95 | 1008.8 |
| 20260903223625 | 58 | 44 | 2.0 | 5.0 | 0.00 | 0.00 | 0.82 | 93 | 1008.8 |
| 20260903223124 | 59 | 65 | 2.0 | 3.0 | 0.00 | 0.00 | 0.81 | 94 | 1008.8 |
| 20260903222624 | 59 | 84 | 3.0 | 4.0 | 0.00 | 0.00 | 0.81 | 93 | 1008.8 |
| 20260903222124 | 59 | 65 | 3.0 | 7.0 | 0.00 | 0.00 | 0.81 | 93 | 1008.9 |
| 20260903221624 | 59 | 12 | 4.0 | 7.0 | 0.00 | 0.00 | 0.80 | 93 | 1008.8 |
| 20260903220524 | 59 | 78 | 2.0 | 5.0 | 0.00 | 0.00 | 0.80 | 94 | 1008.8 |
| 20260903220025 | 58 | 84 | 5.0 | 5.0 | 0.00 | 0.00 | 0.80 | 95 | 1008.7 |
| 20260903215524 | 58 | 60 | 3.0 | 5.0 | 0.00 | 0.00 | 0.80 | 94 | 1008.8 |
| 20260903215024 | 58 | 57 | 4.0 | 5.0 | 0.00 | 0.00 | 0.80 | 94 | 1008.8 |
| 20260903214525 | 58 | 44 | 4.0 | 4.0 | 0.00 | 0.00 | 0.80 | 94 | 1008.7 |
| 20260903214025 | 58 | 29 | 3.0 | 5.0 | 0.00 | 0.00 | 0.80 | 96 | 1008.7 |
| 20260903213325 | 58 | 86 | 5.0 | 5.0 | 0.00 | 0.00 | 0.80 | 96 | 1008.9 |
| 20260903212825 | 58 | 42 | 3.0 | 5.0 | 0.00 | 0.00 | 0.80 | 96 | 1008.8 |
| 20260903212325 | 57 | 9 | 3.0 | 5.0 | 0.00 | 0.00 | 0.80 | 96 | 1008.9 |
| 20260903211625 | 57 | 15 | 3.0 | 4.0 | 0.00 | 0.00 | 0.80 | 97 | 1008.9 |
| 20260903211124 | 56 | 355 | 2.0 | 5.0 | 0.00 | 0.00 | 0.80 | 97 | 1008.8 |
| 20260903210625 | 56 | 34 | 2.0 | 5.0 | 0.00 | 0.00 | 0.80 | 97 | 1008.8 |
| 20260903210124 | 56 | 290 | 2.0 | 4.0 | 0.00 | 0.00 | 0.80 | 97 | 1008.8 |
| 20260903205624 | 55 | 13 | 3.0 | 4.0 | 0.00 | 0.00 | 0.80 | 97 | 1008.9 |
| 20260903204924 | 55 | 355 | 3.0 | 4.0 | 0.00 | 0.00 | 0.79 | 96 | 1008.8 |
| 20260903204424 | 55 | 5 | 3.0 | 4.0 | 0.00 | 0.00 | 0.78 | 95 | 1008.9 |
| 20260903203925 | 55 | 30 | 4.0 | 5.0 | 0.00 | 0.00 | 0.77 | 95 | 1008.9 |
| 20260903203424 | 56 | 355 | 4.0 | 5.0 | 0.00 | 0.00 | 0.77 | 96 | 1009.0 |
| 20260903202725 | 56 | 327 | 4.0 | 5.0 | 0.00 | 0.00 | 0.77 | 96 | 1008.9 |
| 20260903202224 | 55 | 351 | 3.0 | 6.0 | 0.00 | 0.00 | 0.77 | 96 | 1008.9 |
| 20260903201525 | 55 | 9 | 3.0 | 7.0 | 0.00 | 0.00 | 0.77 | 95 | 1009.0 |
| 20260903201025 | 56 | 25 | 4.0 | 7.0 | 0.00 | 0.00 | 0.77 | 96 | 1009.1 |
| 20260903200325 | 55 | 27 | 3.0 | 5.0 | 0.00 | 0.00 | 0.77 | 96 | 1009.1 |
| 20260903195824 | 55 | 5 | 5.0 | 8.0 | 0.00 | 0.00 | 0.77 | 96 | 1009.0 |
| 20260903195325 | 55 | 34 | 3.0 | 8.0 | 0.00 | 0.00 | 0.77 | 96 | 1009.1 |
| 20260903194824 | 55 | 19 | 8.0 | 8.0 | 0.00 | 0.00 | 0.77 | 97 | 1009.0 |
| 20260903194325 | 54 | 313 | 4.0 | 5.0 | 0.00 | 0.00 | 0.77 | 96 | 1008.9 |
| 20260903193824 | 54 | 5 | 5.0 | 5.0 | 0.00 | 0.00 | 0.77 | 97 | 1008.9 |
| 20260903193325 | 54 | 19 | 3.0 | 9.0 | 0.00 | 0.00 | 0.77 | 97 | 1009.0 |
| 20260903192825 | 54 | 28 | 4.0 | 9.0 | 0.00 | 0.00 | 0.76 | 96 | 1009.2 |
| 20260903192324 | 55 | 18 | 7.0 | 9.0 | 0.00 | 0.00 | 0.75 | 96 | 1009.2 |
| 20260903191625 | 56 | 16 | 8.0 | 9.0 | 0.00 | 0.00 | 0.74 | 96 | 1009.2 |
| 20260903191124 | 56 | 26 | 5.0 | 6.0 | 0.00 | 0.00 | 0.73 | 96 | 1009.2 |
| 20260903190624 | 56 | 360 | 4.0 | 5.0 | 0.00 | 0.00 | 0.73 | 95 | 1009.2 |
| 20260903190125 | 56 | 360 | 5.0 | 5.0 | 0.00 | 0.00 | 0.73 | 95 | 1009.2 |
| 20260903185625 | 56 | 360 | 3.0 | 6.0 | 0.00 | 0.00 | 0.72 | 95 | 1009.2 |
| 20260903185124 | 56 | 360 | 3.0 | 6.0 | 0.00 | 0.00 | 0.72 | 94 | 1009.1 |
| 20260903184624 | 56 | 360 | 5.0 | 6.0 | 0.00 | 0.00 | 0.72 | 95 | 1009.1 |